Temp
13 13 14 14 15 15 14 14 13 13 13 12 12 12 13 13 13 13 13 13 13 13 13 13 12 12 12 12 12 12 12 12 12 11 12 12 11 11 11 11 11 11
13 13 14 14 14 15 14 14 14 13 13 13 12 12 13 13 12 12 12 12 12 13 13 13 13 13 12 12 12 12 11 11 11 11 12 12 11 11 11 11 11 11
13 14 14 14 14 14 14 14 13 13 13 13 12 12 12 12 12 12 12 12 12 12 12 13 13 13 13 12 12 12 11 11 11 11 12 12 11 11 11 11 11 11
13 14 14 14 14 14 14 13 13 13 13 13 12 12 12 12 12 12 12 12 12 12 12 12 13 13 13 13 12 12 12 11 11 12 12 12 12 11 11 11 11 11
13 14 14 14 14 14 13 13 12 12 12 12 12 12 11 11 11 11 12 12 12 12 12 12 13 13 13 13 12 12 12 11 11 12 12 12 12 11 11 11 11 11
14 14 14 14 14 13 13 12 12 12 12 12 12 11 11 11 11 11 11 12 12 12 12 12 13 13 13 13 12 12 12 12 12 12 12 12 12 12 12 11 11 11
14 14 14 14 13 13 13 12 12 12 12 12 12 12 12 12 11 11 11 11 11 11 11 12 12 13 13 13 12 12 12 11 12 13 12 12 12 12 12 11 11 11
14 14 13 13 13 13 12 12 12 12 12 12 12 13 12 12 11 11 11 11 11 11 11 12 12 12 13 12 12 12 12 12 12 12 11 11 12 12 12 12 11 11
14 14 13 13 13 13 12 12 12 12 12 12 12 13 12 11 11 12 12 11 11 11 11 11 12 12 13 12 12 12 12 12 12 12 11 11 12 12 12 12 12 11
14 14 13 13 13 13 12 12 12 12 12 11 12 12 12 11 12 12 12 12 11 11 11 11 11 11 12 12 11 11 12 12 12 12 11 11 12 12 12 12 12 12
13 13 13 13 13 13 13 12 12 12 12 11 11 11 11 12 12 12 12 12 11 11 11 11 11 11 11 11 11 11 11 11 11 11 11 11 11 12 12 12 12 12
12 12 12 12 12 13 13 12 12 12 12 11 11 11 11 12 12 11 11 11 11 11 11 11 11 11 11 11 11 11 11 11 11 11 11 11 11 12 12 12 12 12
12 12 12 12 12 13 12 12 12 12 12 11 11 11 11 12 11 11 11 11 11 11 11 11 10 10 10 10 10 10 10 11 11 11 11 11 11 11 11 11 12 12
12 13 12 12 12 12 12 12 12 12 11 11 11 11 11 11 11 11 11 11 11 10 10 10 10 10 10 10 10 10 10 10 11 11 11 11 11 11 11 12 12 12
13 13 12 12 12 12 12 12 12 11 11 11 11 11 11 11 11 11 11 10 10 10 10 10 10 10 10 10 10 10 10 10 10 10 11 11 11 11 11 11 11 12
12 12 12 12 12 12 12 11 11 11 11 11 11 11 11 11 11 10 10 10 10 10 10 10 10 10 10 10 10 10 10 10 10 10 10 11 11 11 11 11 11 11
12 12 12 11 12 12 11 11 11 11 11 11 11 11 11 11 10 10 10 10 10 10 10 10 10 10 10 10 10 10 10 10 10 10 10 10 10 10 11 11 11 11
11 11 11 11 11 11 11 11 11 10 10 11 11 11 11 11 10 10 10 10 10 10 10 10 10 10 10 10 10 10 10 10 10 10 10 10 10 11 11 11 11 10
10 10 11 11 11 11 11 11 10 10 10 10 10 11 11 10 10 10 10 10 10 10 10 10 10 10 10 10 10 10 10 10 10 10 10 10 10 10 11 11 10 10
9 10 10 10 10 10 10 10 10 10 9 9 10 10 10 10 10 10 10 10 10 10 10 10 10 10 10 10 10 10 10 10 10 10 10 10 10 10 10 10 10 10
9 9 9 9 9 9 9 10 10 9 9 9 9 9 10 10 10 10 10 10 10 10 10 10 10 10 10 10 10 10 10 10 10 10 10 10 10 10 10 10 10 10
8 8 8 9 9 9 9 9 9 9 9 9 9 9 9 10 10 10 10 10 10 10 10 10 10 10 10 10 10 10 10 10 10 10 10 10 10 10 10 10 10 10
7 8 8 8 8 9 9 9 8 8 9 9 9 9 9 9 9 10 10 9 9 9 10 10 10 10 10 10 10 10 10 10 10 10 10 10 10 10 10 10 10 11
6 7 7 7 7 8 8 8 8 8 8 8 8 8 9 9 9 9 9 9 9 9 9 9 9 9 10 10 10 10 10 10 10 9 9 10 10 10 10 10 10 10
6 6 6 6 7 7 7 7 7 7 7 7 8 8 8 8 8 8 8 8 9 9 9 9 9 9 9 9 9 9 9 9 9 9 9 9 9 9 9 9 9 10
6 6 6 6 6 6 7 7 7 7 7 7 7 8 8 8 8 8 8 8 8 8 8 9 9 8 8 8 9 9 9 9 9 9 9 9 9 9 9 8 8 9
Height
1533 1533 1533 1534 1534 1536 1537 1539 1541 1542 1543 1545 1546 1547 1548 1549 1550 1551 1552 1553 1553 1554 1555 1555 1556 1557 1558 1559 1560 1561 1562 1563 1564 1566 1567 1568 1569 1569 1570 1572 1573 1574
1531 1532 1532 1532 1533 1535 1537 1538 1540 1542 1543 1545 1546 1547 1548 1549 1550 1551 1551 1552 1553 1554 1554 1555 1556 1557 1557 1558 1559 1560 1562 1563 1564 1565 1566 1567 1568 1569 1570 1571 1572 1573
1529 1530 1530 1531 1532 1534 1536 1538 1540 1542 1543 1544 1545 1546 1547 1548 1549 1550 1551 1552 1553 1553 1554 1555 1556 1556 1557 1558 1559 1560 1561 1562 1563 1564 1565 1565 1567 1568 1569 1570 1571 1572
1527 1529 1530 1530 1532 1534 1536 1538 1539 1541 1542 1544 1545 1546 1547 1548 1549 1549 1550 1551 1552 1553 1554 1555 1555 1556 1557 1558 1558 1559 1561 1562 1563 1563 1564 1565 1566 1567 1568 1569 1570 1571
1526 1528 1529 1530 1532 1533 1535 1537 1539 1540 1542 1543 1544 1545 1546 1547 1548 1549 1550 1551 1551 1552 1553 1554 1555 1555 1556 1557 1558 1559 1560 1561 1562 1562 1564 1564 1565 1566 1567 1568 1569 1570
1525 1527 1529 1530 1532 1533 1535 1537 1538 1540 1541 1542 1543 1544 1545 1546 1548 1548 1549 1550 1551 1552 1552 1553 1554 1555 1556 1556 1557 1558 1559 1560 1561 1562 1563 1564 1565 1566 1566 1567 1568 1569
1524 1526 1528 1530 1532 1533 1535 1536 1538 1539 1541 1542 1542 1544 1545 1546 1547 1548 1549 1550 1551 1552 1552 1552 1553 1554 1555 1556 1557 1558 1558 1559 1560 1561 1562 1563 1564 1565 1566 1567 1568 1569
1524 1526 1528 1530 1532 1533 1535 1536 1537 1539 1540 1541 1542 1543 1544 1546 1547 1548 1548 1549 1550 1551 1552 1552 1553 1554 1555 1555 1556 1557 1558 1559 1560 1561 1562 1563 1563 1564 1565 1566 1567 1568
1523 1525 1527 1530 1531 1533 1534 1536 1537 1538 1540 1541 1542 1543 1544 1546 1547 1547 1548 1549 1550 1551 1551 1552 1552 1553 1554 1555 1556 1557 1558 1559 1559 1560 1561 1562 1563 1564 1565 1565 1566 1567
1523 1525 1527 1529 1531 1532 1534 1535 1537 1538 1540 1541 1542 1543 1544 1546 1546 1547 1548 1549 1550 1550 1551 1551 1552 1553 1554 1554 1555 1556 1558 1558 1559 1560 1561 1562 1563 1565 1565 1565 1566 1567
1522 1525 1527 1529 1531 1532 1533 1535 1536 1538 1539 1541 1542 1543 1545 1546 1546 1547 1548 1548 1549 1550 1551 1551 1552 1553 1554 1555 1555 1556 1557 1559 1559 1560 1561 1562 1563 1564 1565 1566 1566 1567
1521 1524 1527 1529 1531 1532 1533 1534 1535 1537 1539 1540 1542 1543 1544 1545 1546 1547 1548 1549 1550 1551 1551 1552 1552 1553 1554 1555 1556 1556 1557 1558 1559 1560 1561 1562 1563 1564 1565 1565 1566 1567
1520 1523 1526 1529 1531 1532 1533 1534 1535 1536 1538 1540 1541 1542 1543 1544 1546 1546 1548 1549 1550 1551 1551 1552 1552 1553 1554 1555 1556 1557 1557 1558 1559 1560 1561 1562 1562 1563 1564 1564 1565 1566
1520 1524 1526 1528 1530 1531 1533 1534 1535 1536 1538 1539 1540 1541 1542 1543 1545 1546 1547 1548 1549 1549 1550 1551 1552 1553 1554 1555 1556 1557 1557 1558 1558 1560 1560 1561 1562 1562 1563 1564 1564 1565
1520 1523 1525 1527 1530 1531 1532 1533 1535 1536 1537 1538 1539 1540 1541 1543 1544 1545 1546 1547 1548 1548 1549 1550 1551 1552 1553 1554 1555 1556 1557 1558 1558 1559 1560 1561 1562 1562 1563 1563 1564 1565
1518 1521 1523 1525 1528 1530 1532 1532 1534 1535 1536 1538 1538 1539 1540 1542 1543 1545 1546 1547 1548 1548 1548 1549 1550 1551 1551 1552 1554 1555 1556 1558 1558 1559 1560 1561 1561 1562 1562 1563 1563 1564
1516 1518 1521 1524 1526 1528 1530 1531 1533 1534 1535 1537 1537 1539 1540 1541 1543 1544 1546 1547 1547 1547 1547 1548 1549 1550 1551 1552 1553 1554 1555 1557 1558 1559 1559 1560 1561 1562 1562 1563 1563 1563
1515 1517 1520 1522 1525 1527 1528 1530 1532 1534 1535 1536 1537 1538 1539 1541 1542 1544 1545 1545 1546 1547 1547 1548 1549 1550 1551 1552 1553 1554 1555 1556 1557 1558 1559 1559 1560 1561 1562 1563 1563 1563
1515 1517 1519 1521 1524 1525 1527 1529 1531 1534 1535 1535 1536 1538 1539 1541 1541 1542 1543 1544 1545 1546 1547 1548 1549 1550 1550 1551 1552 1553 1554 1555 1557 1558 1558 1559 1560 1560 1561 1562 1563 1563
1516 1517 1519 1521 1524 1525 1526 1527 1530 1533 1535 1535 1536 1538 1539 1540 1541 1541 1542 1543 1544 1545 1546 1547 1548 1549 1550 1551 1552 1553 1554 1555 1556 1557 1557 1558 1559 1559 1560 1561 1562 1562
1516 1517 1519 1521 1523 1526 1526 1527 1529 1532 1534 1534 1535 1538 1539 1540 1540 1541 1541 1542 1543 1544 1545 1546 1547 1549 1550 1551 1552 1553 1554 1554 1555 1556 1557 1557 1558 1559 1559 1560 1560 1561
1517 1518 1520 1522 1524 1526 1527 1527 1529 1532 1533 1533 1534 1537 1538 1539 1539 1540 1540 1541 1542 1543 1544 1545 1547 1548 1549 1550 1551 1552 1553 1554 1554 1555 1556 1556 1557 1558 1558 1559 1559 1560
1518 1519 1521 1523 1524 1526 1527 1528 1530 1531 1532 1533 1534 1535 1536 1537 1538 1538 1539 1541 1541 1542 1543 1544 1545 1547 1548 1549 1550 1551 1552 1553 1553 1554 1554 1555 1556 1556 1557 1557 1557 1558
1519 1520 1521 1522 1524 1525 1526 1528 1529 1530 1531 1532 1533 1534 1535 1536 1536 1537 1538 1540 1541 1542 1542 1543 1544 1546 1547 1548 1548 1549 1550 1551 1552 1553 1553 1554 1554 1555 1555 1555 1555 1555
1520 1521 1522 1523 1525 1526 1527 1528 1529 1529 1530 1531 1532 1533 1534 1535 1536 1537 1538 1539 1541 1541 1542 1542 1543 1544 1545 1546 1546 1547 1548 1549 1550 1551 1551 1552 1553 1553 1553 1553 1553 1552
1521 1522 1523 1524 1525 1526 1527 1528 1529 1530 1530 1531 1532 1532 1533 1533 1535 1536 1537 1538 1539 1540 1540 1541 1542 1543 1543 1544 1545 1545 1546 1546 1547 1548 1548 1549 1550 1551 1551 1551 1551 1550
Wind_Speed
24 22 19 17 17 18 18 17 16 14 14 13 12 12 12 11 11 11 11 11 11 11 11 10 10 10 11 11 12 12 12 13 14 13 14 13 13 12 11 12 11 11
24 22 19 18 18 19 19 18 16 14 14 14 14 14 15 14 13 13 12 12 12 11 11 10 10 10 10 10 12 12 11 11 12 12 12 12 12 12 12 13 13 12
24 22 20 19 20 20 20 19 18 17 16 16 16 16 16 15 14 13 12 12 12 11 10 10 10 11 10 10 11 11 11 11 11 11 11 11 11 11 11 13 13 13
24 22 20 20 21 22 22 22 22 21 20 18 17 17 16 15 14 13 13 12 11 11 10 10 10 11 11 10 10 11 11 11 11 11 11 11 11 10 11 12 13 14
23 21 20 20 22 23 23 23 22 21 20 18 17 16 15 15 14 13 14 13 12 12 12 11 11 11 11 11 11 11 12 12 12 12 11 11 11 11 11 12 14 15
24 22 21 21 22 24 23 21 21 20 19 17 16 15 15 15 14 13 13 13 12 12 12 12 12 12 12 11 11 11 12 12 12 11 11 11 11 11 11 12 13 15
24 22 22 21 21 22 21 20 20 19 18 17 15 15 16 16 14 13 12 12 11 10 10 12 12 12 13 12 11 12 12 11 11 11 11 11 11 11 11 12 12 12
24 22 21 20 20 20 20 19 20 19 18 17 15 14 15 15 14 14 13 11 11 9 9 10 11 10 12 12 11 12 12 12 12 12 11 11 12 12 11 12 12 12
22 21 20 20 20 20 20 20 19 19 18 16 14 13 14 14 13 13 13 11 11 9 8 10 10 11 12 12 10 11 12 12 12 12 11 11 11 10 10 11 13 12
22 21 21 20 19 19 20 20 20 19 18 16 14 13 13 13 12 12 11 11 11 10 9 9 10 11 12 11 10 10 10 12 12 11 12 12 10 10 9 9 10 11
20 20 20 20 19 18 19 20 19 19 18 16 14 13 13 12 12 11 9 9 10 10 9 9 9 10 10 10 10 10 10 10 11 11 12 12 12 11 10 9 9 9
17 18 19 19 18 17 19 20 20 19 18 16 14 13 12 11 11 10 9 9 9 9 9 9 9 9 9 9 9 10 11 11 11 12 12 12 12 11 10 10 9 9
19 19 19 20 19 18 20 21 20 19 18 16 15 13 12 11 10 10 10 9 9 9 9 9 9 9 8 9 9 9 10 11 12 13 13 13 13 11 11 12 10 10
19 19 19 20 20 21 22 22 20 19 18 17 15 13 12 11 10 10 9 9 10 9 9 9 9 8 7 8 8 8 9 10 12 12 12 14 15 13 13 14 13 13
21 23 22 21 20 22 23 21 20 20 19 17 15 13 12 12 10 9 9 9 9 9 9 9 9 9 9 10 8 7 7 8 10 11 10 12 13 13 14 15 13 14
23 25 26 24 23 23 23 22 23 22 20 17 15 13 13 13 11 10 9 9 8 9 9 10 11 12 13 12 11 10 8 7 8 9 9 10 11 11 13 13 12 13
24 26 27 26 25 24 22 23 24 22 20 17 15 14 14 14 13 11 11 10 9 9 9 9 9 10 11 12 12 11 9 7 7 7 7 9 10 10 11 11 12 11
25 27 28 27 26 24 23 22 22 20 18 16 14 14 15 16 15 13 13 13 12 10 9 8 7 8 9 10 11 10 9 8 6 6 6 7 8 9 9 10 11 10
24 25 26 26 24 23 22 21 20 18 16 15 15 15 16 16 16 15 15 14 13 11 10 9 8 8 7 8 8 8 8 8 6 6 6 6 7 8 9 9 10 10
21 22 24 24 23 22 22 21 19 17 16 15 14 13 15 16 16 16 15 14 12 11 10 10 9 8 8 8 7 7 7 7 6 6 6 5 6 8 10 10 10 10
19 20 20 21 21 19 18 17 16 15 13 12 10 10 13 15 16 16 15 14 11 10 10 10 9 9 8 8 7 7 6 6 6 6 6 6 7 8 9 10 11 11
18 18 16 15 14 12 12 14 16 16 13 11 10 11 12 14 14 14 14 13 12 10 9 9 9 9 8 8 7 7 6 6 6 6 7 8 8 9 9 11 12 12
16 16 15 13 12 11 12 14 16 14 13 12 12 13 13 13 13 13 12 11 11 10 10 9 8 8 8 8 8 7 7 7 6 6 8 10 10 10 11 12 13 13
15 15 15 14 14 13 14 14 14 13 13 12 12 12 12 11 12 13 12 10 9 8 8 8 8 9 9 9 9 9 9 9 8 8 10 12 11 12 13 13 14 15
13 12 13 13 12 11 12 12 12 12 11 11 10 9 9 9 9 10 10 10 9 8 8 8 9 9 10 10 11 10 10 11 10 10 11 12 11 12 12 12 15 17
12 11 11 11 10 10 10 9 8 8 8 8 8 8 7 8 8 8 8 8 9 10 10 10 11 11 11 11 11 11 10 11 11 11 11 11 11 12 12 12 14 17
Wind_Direction
199 189 178 176 178 177 174 173 173 170 167 168 171 171 173 177 176 173 173 176 173 171 176 179 178 182 187 188 192 192 193 199 201 201 205 207 205 205 204 200 197 197
193 185 177 177 176 174 173 173 170 165 164 166 169 170 172 173 172 174 180 181 180 180 182 181 181 186 186 186 190 189 188 195 199 204 208 208 207 206 205 204 201 196
188 182 176 176 173 169 168 167 164 163 164 166 168 168 167 168 169 174 181 182 181 184 186 184 184 186 185 188 189 187 188 192 195 202 205 206 207 206 207 208 204 196
185 178 175 174 170 166 164 163 161 161 161 161 163 164 164 166 168 173 176 176 178 180 183 184 185 187 188 191 192 192 192 190 193 198 198 201 202 202 205 204 201 196
177 172 170 171 169 166 164 162 160 157 155 154 157 160 165 167 167 173 173 172 177 181 182 184 187 192 195 194 196 199 199 194 194 194 193 196 197 198 200 196 197 195
172 169 167 169 171 167 164 161 159 157 153 151 152 157 164 165 163 170 172 172 179 184 188 190 192 197 200 201 202 203 200 194 192 190 190 194 195 197 196 189 192 193
173 171 168 170 171 166 164 162 159 157 156 152 151 155 161 162 162 167 170 171 174 178 188 193 193 197 201 203 205 202 194 187 188 188 189 194 193 192 191 185 186 189
178 177 172 171 171 167 165 164 159 158 158 153 151 154 157 159 164 167 166 166 168 169 180 187 186 191 198 200 200 198 193 187 189 190 188 190 187 183 183 181 180 182
180 182 179 174 173 169 167 166 161 158 157 153 152 153 154 159 167 167 162 163 166 166 171 178 180 185 193 197 194 195 195 190 189 188 182 178 172 169 173 174 172 174
182 184 184 180 177 172 169 168 163 158 157 155 157 157 157 163 168 164 161 164 166 167 171 174 176 181 187 190 186 185 191 191 185 177 172 168 162 158 160 159 159 163
185 183 184 183 179 174 172 169 164 159 158 158 160 161 163 166 165 163 165 168 167 167 170 170 170 175 178 179 177 172 172 176 176 172 170 170 166 161 157 151 148 151
185 182 182 181 179 178 174 169 165 163 160 161 163 164 166 166 162 162 163 166 169 169 170 170 167 169 172 175 178 174 169 169 171 172 172 172 170 167 164 161 156 156
184 179 177 176 178 180 175 170 166 164 162 164 166 166 168 165 164 166 163 164 171 170 170 172 170 171 175 174 175 175 175 175 176 176 175 175 175 173 176 177 174 175
189 183 178 176 178 177 173 169 167 166 166 167 167 165 165 165 168 173 169 168 173 170 170 173 170 173 178 177 178 182 181 181 183 183 184 186 186 187 191 192 192 193
193 185 179 179 181 177 172 169 168 169 169 169 168 166 165 166 169 171 165 164 166 163 165 168 169 178 184 181 179 182 185 189 191 191 195 198 199 201 204 205 206 207
193 186 183 181 181 179 175 171 169 170 169 169 169 169 170 169 165 160 155 153 153 156 163 171 180 189 193 191 187 184 185 192 197 199 203 206 206 209 212 213 213 215
187 185 184 182 181 180 177 172 171 171 171 172 172 172 173 170 161 155 153 153 158 163 167 172 180 188 195 197 195 191 189 189 193 199 202 207 208 208 212 213 210 210
185 184 184 183 182 181 177 173 174 174 174 175 174 174 174 170 164 162 166 170 173 175 173 172 176 183 188 190 189 190 191 186 188 196 196 199 205 205 207 211 208 206
178 180 182 182 180 176 174 174 177 179 179 176 173 176 179 178 176 176 179 182 184 184 181 180 183 184 185 186 188 192 192 185 189 204 202 198 201 202 204 205 204 207
173 177 180 180 178 177 177 176 178 184 186 181 176 179 184 188 188 187 187 187 190 193 194 193 195 196 194 195 197 200 200 197 201 212 212 213 215 213 212 213 213 214
171 175 174 174 177 180 177 174 182 196 197 190 190 194 194 195 194 192 191 191 195 202 204 204 207 209 210 211 211 211 215 219 224 230 231 230 231 228 227 229 229 227
161 164 163 166 177 191 195 193 202 213 213 207 208 204 197 195 192 190 192 196 201 206 208 210 215 220 222 225 227 228 231 232 235 242 246 242 242 244 243 240 239 238
144 148 151 159 172 186 194 192 193 196 196 195 197 194 191 192 195 196 196 198 202 205 208 213 219 225 231 235 240 243 245 246 243 246 252 253 254 257 257 254 252 250
122 126 132 143 153 159 165 168 168 170 172 174 180 185 189 193 198 201 197 195 198 202 209 219 225 231 235 237 239 241 243 246 245 245 253 257 260 263 265 265 264 263
123 129 134 138 142 148 154 161 167 168 164 165 173 179 185 188 191 195 194 197 208 214 218 226 232 235 236 235 236 236 237 242 243 244 253 258 259 264 267 267 268 269
126 135 139 140 143 151 153 156 172 179 173 173 178 185 199 203 198 199 201 206 217 222 226 232 236 236 237 237 239 237 237 244 247 248 256 262 265 270 272 271 273 275